W1NJC Weather Reports


time (UTC)temp
F
wind
direction
speed
knots
gust
knots
rain 1hr
in
rain 24hr
in
rain mn
in
humidity
%
barometer
mb
20260507093603 48 327 0.0 3.5 0.10 0.43 0.22 94 1006.3
20260507092703 48 0 0.0 0.0 0.11 0.42 0.21 95 1006.1
20260507091803 48 305 0.0 3.5 0.12 0.41 0.20 94 1006.2
20260507090907 48 287 0.9 7.0 0.12 0.39 0.18 94 1006.3
20260507090024 49 331 0.9 5.2 0.11 0.38 0.17 94 1006.1
20260507085403 49 342 0.9 6.1 0.10 0.37 0.16 94 1006.1
20260507084524 49 0 0.0 0.0 0.10 0.35 0.14 94 1006.5
20260507083603 49 0 0.0 0.0 0.09 0.33 0.12 94 1006.4
20260507082703 49 0 0.0 0.0 0.07 0.31 0.10 93 1006.4
20260507081803 49 0 0.0 0.0 0.06 0.29 0.08 93 1006.6
20260507080903 49 0 0.0 0.0 0.04 0.27 0.06 93 1006.6
20260507080024 49 0 0.0 0.0 0.04 0.27 0.06 92 1006.4
20260507075403 49 0 0.0 0.0 0.04 0.27 0.06 92 1006.2
20260507074503 50 0 0.0 0.0 0.02 0.25 0.04 91 1006.7
20260507073603 50 299 0.0 4.3 0.01 0.24 0.03 91 1006.4
20260507072703 50 0 0.0 0.0 0.01 0.24 0.03 90 1006.4
20260507071803 50 305 0.9 7.0 0.00 0.23 0.02 90 1006.4
20260507070924 50 284 0.9 6.1 0.00 0.23 0.02 91 1005.9
20260507070005 50 0 0.0 0.0 0.00 0.23 0.02 91 1005.5
20260507065403 51 0 0.0 0.0 0.00 0.23 0.02 91 1005.3
20260507064503 51 0 0.0 0.0 0.00 0.23 0.02 92 1005.7
20260507063624 51 0 0.0 0.0 0.00 0.23 0.02 91 1005.6
20260507062704 52 0 0.0 0.0 0.00 0.23 0.02 91 1005.6
20260507061803 52 0 0.0 0.0 0.00 0.23 0.02 91 1005.9
20260507060903 52 290 0.9 5.2 0.00 0.23 0.02 91 1005.8
20260507060003 53 292 0.0 6.1 0.00 0.23 0.02 93 1005.7
20260507055403 53 308 0.0 4.3 0.00 0.23 0.02 93 1005.7
20260507054524 53 305 0.9 7.8 0.00 0.23 0.02 93 1005.7
20260507053624 54 288 0.9 6.1 0.00 0.23 0.02 93 1005.9
20260507052703 54 301 0.9 5.2 0.00 0.23 0.02 93 1005.9
20260507051803 54 287 0.0 2.6 0.00 0.23 0.02 93 1006.1
20260507050903 54 260 0.9 7.0 0.01 0.23 0.02 93 1006.0
20260507050024 55 0 0.0 0.0 0.02 0.23 0.02 93 1006.0
20260507045403 56 8 0.0 2.6 0.02 0.23 0.02 94 1005.5
20260507044503 56 337 0.0 3.5 0.04 0.23 0.02 94 1005.8
20260507043603 56 309 0.9 6.1 0.06 0.23 0.02 94 1005.6
20260507042703 56 289 0.0 3.5 0.06 0.23 0.02 94 1005.8
20260507041803 56 280 0.9 5.2 0.06 0.23 0.02 94 1005.8
20260507040903 57 293 0.0 5.2 0.05 0.22 0.01 94 1005.5
20260507040004 57 279 0.0 4.3 0.04 0.21 0.00 94 1005.9
20260507035403 57 233 0.0 6.1 0.04 0.21 0.21 94 1005.8
20260507034503 58 239 0.0 6.1 0.02 0.19 0.19 94 1005.8
20260507033603 58 253 0.9 5.2 0.00 0.17 0.17 94 1005.8
20260507032724 58 247 0.9 6.1 0.00 0.17 0.17 94 1005.8
20260507031824 58 238 1.7 8.7 0.00 0.17 0.17 95 1005.6
20260507030903 58 252 1.7 11.3 0.00 0.17 0.17 95 1005.4
20260507030003 58 218 1.7 7.8 0.00 0.17 0.17 95 1005.2
20260507025424 58 226 2.6 9.6 0.00 0.17 0.17 95 1005.2
20260507024503 58 243 1.7 8.7 0.00 0.17 0.17 95 1005.3
20260507023603 58 259 0.9 9.6 0.01 0.17 0.17 95 1005.1
20260507022703 58 233 1.7 8.7 0.01 0.17 0.17 95 1005.1
20260507021803 58 225 1.7 7.0 0.01 0.17 0.17 95 1005.0
20260507020924 58 216 1.7 9.6 0.01 0.17 0.17 95 1005.1
20260507020003 58 177 1.7 7.0 0.01 0.17 0.17 95 1005.2
20260507015403 58 183 1.7 7.0 0.01 0.17 0.17 95 1005.2
20260507014503 58 202 1.7 7.8 0.01 0.17 0.17 95 1005.2
20260507013603 58 222 1.7 7.0 0.00 0.16 0.16 95 1005.2
20260507012703 58 168 2.6 7.8 0.00 0.16 0.16 95 1005.0
20260507011825 58 157 0.9 7.0 0.00 0.16 0.16 95 1005.2
20260507010905 57 222 1.7 7.0 0.00 0.16 0.16 95 1005.4
20260507010004 57 224 0.9 7.8 0.00 0.16 0.16 95 1005.4
20260507005403 57 207 1.7 7.8 0.00 0.16 0.16 95 1005.5
20260507004503 57 256 1.7 7.0 0.00 0.16 0.16 95 1005.5
20260507003603 57 192 3.5 8.7 0.00 0.16 0.16 95 1005.5
20260507002703 57 181 2.6 8.7 0.00 0.16 0.16 95 1005.5
20260507001803 57 213 2.6 8.7 0.01 0.16 0.16 94 1005.5
20260507000903 58 211 1.7 10.4 0.03 0.16 0.16 94 1005.3
20260507000003 58 161 1.7 7.8 0.03 0.16 0.16 94 1005.2
20260506235424 58 163 0.9 7.8 0.03 0.16 0.16 94 1005.2
20260506234503 58 150 0.9 5.2 0.04 0.16 0.16 94 1005.1
20260506233624 58 213 0.9 6.1 0.05 0.16 0.16 94 1005.2
20260506232724 58 179 0.9 5.2 0.05 0.16 0.16 94 1005.1
20260506231803 58 222 1.7 7.8 0.04 0.15 0.15 94 1005.2
20260506230903 58 225 0.9 9.6 0.02 0.13 0.13 94 1005.1
20260506230003 58 168 0.9 5.2 0.02 0.13 0.13 94 1005.0
20260506225403 58 216 1.7 7.0 0.02 0.13 0.13 93 1005.1
20260506224503 58 209 1.7 8.7 0.01 0.12 0.12 93 1005.2
20260506223603 58 219 1.7 8.7 0.00 0.11 0.11 93 1005.0
20260506222703 58 212 0.9 9.6 0.00 0.11 0.11 93 1005.2
20260506221824 58 222 1.7 9.6 0.01 0.11 0.11 93 1005.1
20260506220924 58 201 0.9 7.8 0.01 0.11 0.11 93 1005.2
20260506220024 59 164 0.9 7.0 0.02 0.11 0.11 93 1005.3
20260506215424 59 193 0.9 7.0 0.02 0.11 0.11 93 1005.4
20260506213603 59 208 1.7 9.6 0.02 0.11 0.11 93 1005.4
20260506212703 59 197 1.7 9.6 0.03 0.11 0.11 93 1005.4
20260506211803 59 171 2.6 7.8 0.03 0.10 0.10 93 1005.7
20260506210903 59 189 2.6 7.8 0.03 0.10 0.10 93 1005.8
20260506210024 59 168 2.6 9.6 0.02 0.09 0.09 93 1005.8
20260506205403 59 178 2.6 9.6 0.02 0.09 0.09 92 1005.8
20260506204503 59 197 2.6 10.4 0.02 0.09 0.09 93 1005.9
20260506203603 59 180 1.7 10.4 0.02 0.09 0.09 92 1005.8
20260506202703 59 159 2.6 8.7 0.02 0.08 0.08 92 1005.9
20260506201803 59 177 2.6 15.6 0.01 0.07 0.07 92 1006.0
20260506200903 59 227 1.7 12.2 0.02 0.07 0.07 91 1006.1
20260506200004 59 192 4.3 10.4 0.03 0.07 0.07 90 1006.2
20260506195403 59 185 3.5 10.4 0.04 0.07 0.07 90 1006.3
20260506194503 59 171 2.6 8.7 0.05 0.07 0.07 90 1006.2
20260506193603 60 212 2.6 9.6 0.06 0.07 0.07 91 1006.3
20260506192703 60 190 1.7 7.8 0.05 0.06 0.06 91 1006.3
20260506191824 60 188 2.6 9.6 0.06 0.06 0.06 89 1006.3
20260506190903 60 191 2.6 9.6 0.05 0.05 0.05 88 1006.4
20260506190003 61 190 1.7 9.6 0.04 0.04 0.04 87 1006.6
20260506185403 62 190 1.7 9.6 0.03 0.03 0.03 86 1006.5
20260506184503 63 188 0.9 7.0 0.02 0.02 0.02 85 1006.6
20260506183624 63 188 2.6 9.6 0.01 0.01 0.01 82 1006.8
20260506182703 64 159 2.6 9.6 0.01 0.01 0.01 79 1006.8
20260506181803 65 182 1.7 7.8 0.00 0.00 0.00 78 1006.9
20260506180903 66 191 2.6 9.6 0.00 0.00 0.00 75 1007.0
20260506180004 66 174 2.6 13.0 0.00 0.00 0.00 71 1007.0
20260506175403 67 186 4.3 13.0 0.00 0.00 0.00 71 1007.0
20260506174503 68 182 5.2 11.3 0.00 0.00 0.00 68 1007.2
20260506173603 69 179 7.0 14.8 0.00 0.00 0.00 65 1007.2
20260506172703 70 226 5.2 13.9 0.00 0.00 0.00 63 1007.0
20260506171824 70 181 7.0 21.7 0.00 0.00 0.00 62 1007.0
20260506170903 71 175 6.1 15.6 0.00 0.00 0.00 62 1007.2
20260506170004 71 188 5.2 20.9 0.00 0.00 0.00 61 1007.0
20260506165403 71 182 5.2 20.9 0.00 0.00 0.00 62 1007.1
20260506164503 71 171 7.0 18.2 0.00 0.00 0.00 61 1007.2
20260506163603 71 165 5.2 11.3 0.00 0.00 0.00 63 1007.2
20260506162703 70 176 7.0 16.5 0.00 0.00 0.00 63 1007.5
20260506161824 71 200 4.3 16.5 0.00 0.00 0.00 61 1007.6
20260506160924 71 207 3.5 13.9 0.00 0.00 0.00 62 1007.6
20260506160003 71 206 5.2 17.4 0.00 0.00 0.00 62 1007.8
20260506155403 71 173 5.2 17.4 0.00 0.00 0.00 61 1007.7
20260506154503 71 182 4.3 15.6 0.00 0.00 0.00 62 1007.8
20260506153603 71 194 3.5 16.5 0.00 0.00 0.00 62 1007.9
20260506152703 70 186 3.5 12.2 0.00 0.00 0.00 64 1008.1
20260506151803 70 201 5.2 15.6 0.00 0.00 0.00 64 1008.1
20260506150924 69 201 6.1 16.5 0.00 0.00 0.00 65 1008.3
20260506150003 69 197 3.5 9.6 0.00 0.00 0.00 67 1008.4
20260506145403 68 195 5.2 14.8 0.00 0.00 0.00 68 1008.5
20260506144503 68 210 4.3 14.8 0.00 0.00 0.00 67 1008.5
20260506143603 68 167 3.5 12.2 0.00 0.00 0.00 67 1008.5
20260506142703 68 172 2.6 12.2 0.00 0.00 0.00 68 1008.5
20260506141803 68 186 3.5 12.2 0.00 0.00 0.00 69 1008.5
20260506140903 68 180 4.3 12.2 0.00 0.00 0.00 68 1008.4
20260506140024 67 184 5.2 15.6 0.00 0.00 0.00 70 1008.2
20260506135403 67 184 3.5 11.3 0.00 0.00 0.00 71 1008.4
20260506134503 66 174 4.3 18.2 0.00 0.00 0.00 73 1008.4
20260506133603 65 205 4.3 13.9 0.00 0.00 0.00 74 1008.3
20260506132703 64 192 4.3 10.4 0.00 0.00 0.00 75 1008.4
20260506131803 64 199 2.6 9.6 0.00 0.00 0.00 79 1008.9
20260506130903 63 202 4.3 14.8 0.00 0.00 0.00 79 1009.0
20260506130004 62 194 4.3 9.6 0.00 0.00 0.00 79 1009.2
20260506125424 62 208 4.3 9.6 0.00 0.00 0.00 79 1009.1
20260506124503 62 219 1.7 9.6 0.00 0.00 0.00 79 1008.9
20260506123603 62 204 3.5 12.2 0.00 0.00 0.00 81 1009.0
20260506122704 62 209 2.6 10.4 0.00 0.00 0.00 81 1009.0
20260506121803 61 200 3.5 10.4 0.00 0.00 0.00 81 1009.2
20260506120004 60 194 3.5 13.9 0.00 0.00 0.00 83 1009.0
20260506115403 60 178 4.3 15.6 0.00 0.00 0.00 83 1009.0
20260506114503 60 193 3.5 8.7 0.00 0.00 0.00 84 1009.2
20260506113603 59 205 4.3 12.2 0.00 0.00 0.00 84 1009.3
20260506112703 59 201 4.3 19.1 0.00 0.00 0.00 83 1009.5
20260506111803 59 228 2.6 12.2 0.00 0.00 0.00 84 1009.7
20260506110903 59 165 2.6 9.6 0.00 0.00 0.00 85 1009.4
20260506105403 58 189 1.7 7.0 0.00 0.00 0.00 86 1009.2
20260506104503 58 174 0.9 6.1 0.00 0.00 0.00 86 1009.2
20260506103603 58 180 0.9 5.2 0.00 0.00 0.00 86 1009.2
20260506102703 58 194 1.7 7.0 0.00 0.00 0.00 86 1009.1
20260506101803 58 199 1.7 9.6 0.00 0.00 0.00 86 1009.3
20260506100903 58 206 2.6 9.6 0.00 0.00 0.00 86 1009.1
20260506100003 58 204 1.7 7.0 0.00 0.00 0.00 85 1009.2
20260506095403 58 206 1.7 7.8 0.00 0.00 0.00 85 1009.1